EW5860 Weather Reports


time (UTC)temp
C
wind
direction
speed
KPH
gust
KPH
rain 1hr
cm
rain 24hr
cm
rain mn
cm
humidity
%
barometer
mb
20260903190024 29 192 3.2 14.5 0.00 3.25 3.25 67 1012.9
20260903184521 28 269 3.2 16.1 0.00 3.28 3.25 73 1013.2
20260903183022 29 203 6.4 19.3 0.00 3.28 3.25 69 1013.3
20260903181517 28 217 6.4 14.5 0.00 3.28 3.25 72 1013.4
20260903180029 28 238 0.0 9.7 0.00 3.28 3.25 74 1013.6
20260903174512 28 179 6.4 17.7 0.00 3.51 3.25 73 1013.6
20260903173009 28 190 6.4 17.7 0.00 3.51 3.25 77 1013.6
20260903171506 27 251 4.8 17.7 0.00 3.51 3.25 78 1014.0
20260903170004 27 250 11.3 25.7 0.00 3.51 3.25 77 1014.2
20260903164504 27 212 9.7 22.5 0.00 3.51 3.25 76 1014.6
20260903163003 27 265 6.4 17.7 0.00 3.51 3.25 76 1014.7
20260903161500 27 250 4.8 17.7 0.00 3.51 3.25 77 1014.8
20260903160107 26 271 8.0 22.5 0.00 3.51 3.25 78 1015.0
20260903154554 26 210 8.0 19.3 0.00 3.51 3.25 80 1015.6
20260903153051 25 271 4.8 14.5 0.00 3.51 3.25 86 1015.8
20260903151554 25 239 6.4 16.1 0.00 3.51 3.25 86 1015.6
20260903150056 25 218 3.2 16.1 0.00 3.51 3.25 87 1015.6
20260903144554 25 280 4.8 20.9 0.00 3.51 3.25 87 1016.0
20260903143148 25 216 0.0 12.9 0.00 3.51 3.25 88 1015.7
20260903141545 25 256 3.2 8.0 0.00 3.51 3.25 87 1015.4
20260903140043 24 132 4.8 16.1 0.00 3.51 3.25 89 1015.2
20260903134540 24 236 0.0 1.6 0.00 3.51 3.25 92 1015.3
20260903133040 23 216 0.0 6.4 0.00 3.51 3.25 92 1015.3
20260903131539 23 198 1.6 9.7 0.00 3.51 3.25 92 1015.0
20260903130036 22 336 0.0 1.6 0.00 3.51 3.25 95 1015.0
20260903124527 21 252 0.0 3.2 0.00 3.53 3.25 95 1015.1
20260903123025 21 200 4.8 16.1 0.00 3.53 3.25 95 1015.1
20260903121524 21 210 9.7 17.7 0.00 3.53 3.25 96 1015.1
20260903120022 21 169 11.3 27.4 0.00 3.53 3.25 96 1015.0
20260903114521 20 229 8.0 24.1 0.00 3.56 3.25 97 1014.8
20260903113027 20 221 9.7 19.3 0.03 3.56 3.25 97 1014.5
20260903111517 20 198 6.4 17.7 0.03 3.56 3.25 98 1014.9
20260903110024 20 163 1.6 17.7 0.03 3.56 3.25 98 1015.5
20260903104513 20 215 0.0 3.2 0.03 3.56 3.25 98 1016.3
20260903103012 20 49 0.0 4.8 0.00 3.53 3.23 98 1016.8
20260903101511 20 225 4.8 19.3 0.00 3.53 3.23 98 1016.2
20260903100011 20 213 9.7 22.5 0.08 3.53 3.23 98 1016.1
20260903094523 20 199 6.4 22.5 0.15 3.53 3.23 98 1016.0
20260903093009 20 183 6.4 14.5 0.28 3.53 3.23 99 1016.3
20260903091508 19 224 3.2 16.1 0.36 3.53 3.23 98 1015.8
20260903090007 19 227 0.0 9.7 0.91 3.45 3.15 98 1016.7
20260903084506 19 240 0.0 3.2 1.09 3.38 3.05 98 1016.5
20260903083005 19 221 0.0 4.8 0.99 3.25 2.90 98 1016.6
20260903081503 19 123 0.0 1.6 0.94 3.20 2.84 98 1016.8
20260903080005 20 250 9.7 24.1 0.25 2.51 2.18 98 1018.9
20260903074504 20 37 0.0 6.4 0.03 2.29 1.96 98 1017.4
20260903073002 20 232 0.0 0.0 0.00 2.26 1.93 98 1017.3
20260903071502 20 232 0.0 1.6 0.00 2.26 1.93 98 1016.9
20260903064604 20 232 0.0 1.6 0.00 2.26 1.93 98 1016.7
20260903063059 20 54 0.0 3.2 0.08 2.26 1.93 98 1017.0
20260903061602 20 222 0.0 3.2 1.78 2.26 1.93 98 1016.9
20260903060058 20 241 1.6 6.4 1.85 2.26 1.93 98 1017.2
20260903054558 20 92 0.0 6.4 1.88 2.26 1.93 98 1017.5
20260903053107 20 102 1.6 6.4 1.80 2.16 1.83 98 1017.7
20260903051555 21 296 1.6 8.0 0.10 0.46 0.13 98 1019.1
20260903050048 21 339 0.0 1.6 0.08 0.41 0.08 98 1018.1
20260903044554 21 273 0.0 1.6 0.05 0.38 0.05 98 1018.2
20260903043045 21 251 0.0 1.6 0.03 0.36 0.03 98 1017.3
20260903041543 21 106 0.0 0.0 0.03 0.36 0.03 98 1017.5
20260903040041 21 112 0.0 0.0 0.00 0.33 0.00 98 1017.7
20260903034540 21 112 0.0 0.0 0.00 0.33 0.33 98 1017.5
20260903033040 21 112 0.0 0.0 0.00 0.33 0.33 98 1018.0
20260903031539 21 112 0.0 0.0 0.00 0.33 0.33 98 1018.0
20260903030043 21 112 0.0 0.0 0.00 0.33 0.33 98 1017.4
20260903024543 21 112 0.0 0.0 0.00 0.33 0.33 98 1017.7
20260903023038 21 112 0.0 0.0 0.00 0.33 0.33 98 1017.9
20260903021538 21 110 0.0 0.0 0.00 0.33 0.33 98 1017.9
20260903020036 21 110 0.0 1.6 0.00 0.33 0.33 98 1017.5
20260903014538 21 342 0.0 1.6 0.00 0.33 0.33 98 1017.5
20260903013036 21 51 0.0 1.6 0.00 0.33 0.33 98 1017.5
20260903011541 21 113 0.0 0.0 0.00 0.33 0.33 98 1017.5
20260903010035 21 112 0.0 0.0 0.00 0.33 0.33 98 1017.7
20260903004534 21 115 0.0 0.0 0.00 0.36 0.33 98 1017.7
20260903003035 21 121 0.0 0.0 0.00 0.36 0.33 98 1017.7
20260903001533 21 121 0.0 3.2 0.00 0.36 0.33 98 1017.5
20260903000033 21 295 0.0 6.4 0.00 0.36 0.33 98 1017.3
20260902234532 21 133 0.0 1.6 0.00 1.57 0.33 97 1017.0
20260902233037 21 258 0.0 1.6 0.00 1.57 0.33 97 1017.2
20260902231536 21 98 0.0 4.8 0.00 1.57 0.33 97 1017.3
20260902230031 21 110 0.0 3.2 0.00 1.57 0.33 97 1017.4
20260902224530 21 202 0.0 4.8 0.00 1.57 0.33 97 1017.5
20260902223031 21 220 0.0 0.0 0.00 1.57 0.33 97 1017.6
20260902221529 21 182 0.0 3.2 0.00 1.57 0.33 97 1017.7
20260902220031 22 322 0.0 1.6 0.00 1.57 0.33 97 1017.8
20260902214529 22 118 0.0 3.2 0.00 1.57 0.33 97 1018.0
20260902213028 22 293 0.0 1.6 0.00 1.57 0.33 96 1018.0
20260902211527 22 275 0.0 1.6 0.00 1.57 0.33 97 1017.7
20260902210033 22 115 0.0 3.2 0.00 1.57 0.33 96 1017.5
20260902204537 22 138 0.0 3.2 0.00 1.57 0.33 97 1017.1
20260902203026 22 77 0.0 1.6 0.00 1.57 0.33 96 1017.4
20260902201530 22 77 0.0 0.0 0.00 1.57 0.33 97 1017.7
20260902200025 22 77 0.0 1.6 0.00 1.57 0.33 97 1018.1
20260902194523 22 350 0.0 4.8 0.00 1.57 0.33 97 1018.0
20260902193024 22 244 0.0 1.6 0.03 1.57 0.33 97 1017.5
20260902191523 22 275 0.0 1.6 0.03 1.57 0.33 97 1017.8